Location: The Saddle
(36.8333°N, 80.3417°W)
Time: 09:59:52
(UTC-05:00)

SR - Pass Details

Date: 12 December 2023
Orbit: 574 x 867 km, 66.7° (Epoch: 03 March)

Event Time Altitude Azimuth Distance (km) Brightness Sun altitude
Rises 17:44:50 0° 343° (NNW) 3,437 ? -7.9°
Reaches altitude 10° 17:47:57 10° 359° (N) 2,472 ? -8.5°
Maximum altitude 17:52:19 22° 49° (NE) 1,723 ? -9.3°
Drops below altitude 10° 17:56:29 10° 99° (E) 2,346 ? -10.1°
Enters shadow 17:57:29 - 105° (ESE) 2,630 ? -10.3°
